星链-4193 (STARLINK-4193 )

导读 | 豆包AI

STARLINK-4193是美国太空探索技术公司星链(Starlink)星座中的卫星,于2022年6月17日发射升空,归属星链互联网卫星星座组网,为全球提供低延迟、高速率的卫星互联网服务,运行在近地轨道,是星链大规模组网建设中的组成单元。

基本信息
目录编号:
52875
目录名称:
STARLINK-4193
国际标识:
2022-062AX
轨道中心:
EARTH
卫星名称:
星链-4193
卫星全名:
星链-4193 (STARLINK-4193 )
卫星状态:
在轨 (已飞行1413 天)
发射日期:
2022-06-17 UTC
国别 :
美国 (US)
星等 :
--
轨道信息
数据来源 国际轨道数据 AOE轨道数据
星历时间 2026-04-30T16:28:16+0800
13小时前
查看轨道信息
2026-04-25T07:00:00+0800
5天前
查看轨道信息
半长轴 6917.9km 6917.834km
偏心率 0.00013 0.0001399
轨道倾角 53.217° 53.215°
近地点辐角 78.579° 72.365°
升交点赤经 142.195° 166.411°
平近点角 281.535° 129.172°
近地点 538.863km 538.729km
远地点 540.663km 540.665km
周期 95.438分钟 95.437分钟
每日圈数 15.088338 15.088554
详细信息
固有亮度:
5
最大亮度:
2.5
卫星平台:
Starlink v1.5
覆盖范围:
全球
运营商:
太空探索技术公司
运营商所在国:
美国
制造商(研发单位):
太空探索技术公司
制造商所在国:
美国
使用方式:
暂无
卫星简介
星链(Starlink)计划是由太空探索技术公司(SpaceX)提出的一个巨型低轨卫星互联网星座项目,计划在2019年至2024年间在太空搭建由约1.2万颗卫星组成的“星链”网络,其中1584颗将部署在地球上空550千米处的近地轨道,并从2020年开始工作。该卫星仍在工作。
2D轨道图
3D轨道图
轨道高度分析图
轨道倾角分析图
轨道综合分析图
查看轨道综合分析图